Regional Weather Roundup
Issued by NWS

Home | Current Version | Previous Version | Graphics & Text | Print | Product List | Glossary Off
Versions: 1 2 3 4 5 6 7 8 9 10 11 12 13 14 15 16 17 18 19 20 21 22 23 24 25 26 27 28 29 30 31 32 33 34 35 36 37 38 39 40 41 42 43 44 45 46 47 48 49 50

719
ASUS43 KTOP 132059
RWRKS

WEATHER ROUNDUP FOR KANSAS
NATIONAL WEATHER SERVICE GOODLAND KS
300 PM CST SAT FEB 13 2016

NOTE:  "FAIR" INDICATES FEW OR NO CLOUDS BELOW 12,000 FEET WITH NO
SIGNIFICANT WEATHER AND/OR OBSTRUCTIONS TO VISIBILITY.

KSZ001>006-013>018-027>032-041>047-132200-
NORTHWEST KANSAS

CITY           SKY/WX    TMP DP  RH WIND       PRES   REMARKS
GOODLAND       CLOUDY    30  29  96 S16       30.01F FOG     WCI  19
HAYS           CLOUDY    36  12  38 S15       30.15F WCI  26
HILL CITY      CLOUDY    34  20  56 SE13      30.14F WCI  25
RUSSELL        CLOUDY    36  15  42 SE15      30.16F WCI  27
$$

KSZ061>065-074>080-084>089-132200-
SOUTHWEST KANSAS

CITY           SKY/WX    TMP DP  RH WIND       PRES   REMARKS
DODGE CITY     CLOUDY    42  23  46 S21       30.07F
ELKHART          N/A     71  31  22 S17         N/A
GARDEN CITY    CLOUDY    50  29  44 S15       30.01F
GREAT BEND     CLOUDY    37  16  41 SE16      30.16F WCI  28
LIBERAL        SUNNY     63  37  39 S15G22    30.00F
$$

KSZ066>073-081>083-090>101-132200-
SOUTHEAST KANSAS

CITY           SKY/WX    TMP DP  RH WIND       PRES   REMARKS
CHANUTE        CLOUDY    38   3  23 E13       30.31F WCI  30
COFFEYVILLE    MOSUNNY   43   7  22 E14       30.31F
HUTCHINSON     SUNNY     40   6  24 SE16G23   30.19F WCI  31
MEDICINE LODGE   N/A     43  19  38 S9G20     30.17F
NEWTON         MOSUNNY   39   7  26 SE16      30.22F WCI  30
PARSONS        CLOUDY    41   4  21 E8        30.32F
WICHITA INTL   CLOUDY    43   8  23 SE18G24   30.21F
WICHITA JABRA  PTSUNNY   40   6  24 E16G22    30.22F WCI  31
WINFIELD       SUNNY     45   9  23 E16G22    30.24F
$$

KSZ007>012-019>026-033>040-048>060-102>105-132200-
NORTHEAST KANSAS

CITY           SKY/WX    TMP DP  RH WIND       PRES   REMARKS
CONCORDIA      CLOUDY    28   4  35 SE13G22   30.25F WCI  17
EMPORIA        CLOUDY    34   1  24 E15       30.29F WCI  24
LAWRENCE       CLOUDY    23   1  38 E12       30.40F WCI  12
MANHATTAN      PTSUNNY   31   1  28 SE16      30.30F WCI  20
OLATHE IND     CLOUDY    21   2  43 E13       30.40F WCI   9
OLATHE EXE     CLOUDY    21   1  41 E12       30.40F WCI   9
SALINA         CLOUDY    37   3  24 SE14      30.22F WCI  28
TOPEKA BILLARD CLOUDY    26   1  34 SE15      30.38F WCI  14
TOPEKA FORBES  CLOUDY    26   4  38 E13       30.36F WCI  15
$$




USA.gov is the U.S. government's official web portal to all federal, state and local government web resources and services.